period_start,C,m1,H,J0,J1,J2,J3,J4,J5,JA,JB,JC,JD,JJ,JK,JN,#
2017-11-24 00:01:21,0.08,1.75,0.00,16.42,19.70,22.88,14.50,49.46,1029.84,2056.97,2737.56,2747.35,3028.19,600.28,617.75,40.82,0000 0000 0000 0000 000000
2017-11-24 00:06:23,0.12,1.75,0.00,16.39,19.70,22.86,14.54,49.55,1029.81,2056.98,2735.59,2745.94,3026.74,600.17,617.77,40.87,0000 0000 0000 0000 000000
2017-11-24 00:11:24,0.11,1.76,0.00,16.39,19.70,22.84,14.43,49.43,1029.81,2056.98,2733.33,2744.31,3024.90,599.56,617.16,40.92,0000 0000 0000 0000 000000
2017-11-24 00:16:25,0.07,1.77,0.00,16.40,19.69,22.87,14.47,49.36,1029.80,2056.98,2731.87,2743.26,3023.93,599.96,617.47,40.97,0000 0000 0000 0000 000000
2017-11-24 00:21:26,0.05,1.77,0.00,16.39,19.69,22.87,14.43,49.42,1029.80,2056.99,2731.02,2742.63,3023.09,599.83,617.43,41.02,0000 0000 0000 0000 000000
2017-11-24 00:26:27,0.03,1.77,0.00,16.38,19.69,22.86,14.49,49.51,1029.81,2056.99,2730.32,2742.03,3022.80,600.08,617.68,41.07,0000 0000 0000 0000 000000
2017-11-24 00:31:29,0.01,1.77,0.00,16.37,19.69,22.85,14.48,49.58,1029.84,2056.98,2729.67,2741.81,3021.89,599.98,617.59,41.13,0000 0000 0000 0000 000000
2017-11-24 00:36:30,1.30,1.81,0.00,16.39,19.69,22.84,14.50,49.58,1029.85,2056.99,2712.90,2731.83,3011.63,600.14,617.73,41.18,0000 0000 0000 0000 000000
2017-11-24 00:41:32,0.17,1.84,0.00,16.39,19.69,22.89,14.45,49.53,1029.83,2056.99,2702.14,2725.09,3004.30,599.94,617.53,41.23,0000 0000 0000 0000 000000
2017-11-24 00:46:33,0.06,1.85,0.00,16.41,19.69,22.85,14.44,49.49,1029.82,2056.99,2701.23,2724.62,3003.67,600.04,617.66,41.28,0000 0000 0000 0000 000000
2017-11-24 00:51:34,0.40,1.86,0.00,16.40,19.69,22.82,14.49,49.47,1029.82,2056.99,2695.51,2720.66,2999.53,599.91,617.44,41.33,0000 0000 0000 0000 000000
2017-11-24 00:56:35,0.19,1.88,0.00,16.41,19.70,22.84,14.53,49.60,1029.80,2056.99,2690.80,2717.53,2996.22,599.92,617.53,41.38,0000 0000 0000 0000 000000
2017-11-24 01:01:36,0.05,1.88,0.00,16.40,19.70,22.86,14.52,49.63,1029.80,2056.99,2689.43,2716.77,2995.07,600.30,617.89,41.43,0000 0000 0000 0000 000000
2017-11-24 01:06:38,0.03,1.88,0.00,16.38,19.70,22.82,14.46,49.50,1029.80,2056.99,2688.90,2716.06,2994.81,600.18,617.80,41.48,0000 0000 0000 0000 000000
2017-11-24 01:11:39,0.03,1.88,0.00,16.38,19.71,22.81,14.47,49.67,1029.80,2056.98,2688.11,2715.98,2994.08,599.71,617.20,41.53,0000 0000 0000 0000 000000
2017-11-24 01:16:40,0.04,1.89,0.00,16.38,19.71,22.79,14.43,49.67,1029.80,2056.99,2687.68,2715.39,2993.90,600.09,617.71,41.58,0000 0000 0000 0000 000000
2017-11-24 01:21:42,0.02,1.89,0.00,16.39,19.71,22.83,14.54,49.78,1029.75,2056.98,2687.09,2715.03,2993.22,600.25,617.63,41.63,0000 0000 0000 0000 000000
2017-11-24 01:26:43,0.00,1.89,0.00,16.40,19.71,22.85,14.46,49.73,1029.67,2056.98,2687.00,2715.00,2993.01,599.46,616.90,41.68,0000 0000 0000 0000 000000
2017-11-24 01:31:44,0.00,1.89,0.00,16.40,19.71,22.83,14.44,49.64,1029.59,2056.97,2686.97,2714.99,2992.99,599.76,617.34,41.73,0000 0000 0000 0000 000000
2017-11-24 01:36:46,0.03,1.89,0.00,16.41,19.71,22.86,14.47,49.58,1029.48,2056.97,2686.34,2714.78,2992.70,600.05,617.41,41.78,0000 0000 0000 0000 000000
2017-11-24 01:41:47,0.03,1.89,0.00,16.42,19.71,22.84,14.53,49.61,1029.38,2056.96,2686.00,2714.11,2992.06,600.08,617.28,41.83,0000 0000 0000 0000 000000
2017-11-24 01:46:48,0.01,1.89,0.00,16.42,19.71,22.82,14.46,49.57,1029.37,2056.97,2685.79,2714.00,2992.00,599.66,616.93,41.88,0000 0000 0000 0000 000000
2017-11-24 01:51:49,0.02,1.89,0.00,16.42,19.72,22.86,14.47,49.44,1029.39,2056.96,2685.07,2713.89,2991.88,600.24,617.47,41.93,0000 0000 0000 0000 000000
2017-11-24 01:56:51,0.19,1.90,0.00,16.43,19.72,22.84,14.45,49.60,1029.34,2056.96,2682.78,2711.97,2989.76,599.78,616.94,41.98,0000 0000 0000 0000 000000
2017-11-24 02:01:52,0.25,1.91,0.00,16.44,19.72,22.87,14.48,49.69,1029.32,2056.97,2679.05,2709.08,2986.67,600.19,617.38,42.03,0000 0000 0000 0000 000000
2017-11-24 02:06:53,0.18,1.92,0.00,16.43,19.72,22.84,14.47,49.70,1029.31,2056.97,2675.77,2706.53,2983.87,599.77,616.89,42.08,0000 0000 0000 0000 000000
2017-11-24 02:11:54,0.02,1.93,0.00,16.43,19.72,22.84,14.43,49.77,1029.32,2056.97,2674.79,2705.88,2983.01,599.67,616.95,42.14,0000 0000 0000 0000 000000
2017-11-24 02:16:55,0.06,1.93,0.00,16.43,19.72,22.85,14.56,49.73,1029.31,2056.98,2673.96,2705.10,2982.46,600.05,617.21,42.19,0000 0000 0000 0000 000000
2017-11-24 02:21:57,0.08,1.93,0.00,16.42,19.72,22.87,14.50,49.75,1029.31,2056.98,2672.61,2704.30,2981.46,599.77,616.90,42.24,0000 0000 0000 0000 000000
2017-11-24 02:26:58,0.01,1.93,0.00,16.43,19.72,22.84,14.48,49.71,1029.31,2056.98,2671.98,2703.98,2981.00,599.88,617.05,42.29,0000 0000 0000 0000 000000
2017-11-24 02:31:59,0.04,1.93,0.00,16.43,19.72,22.85,14.44,49.63,1029.31,2056.99,2671.49,2703.55,2980.92,600.20,617.40,42.34,0000 0000 0000 0000 000000
2017-11-24 02:37:00,0.11,1.94,0.00,16.44,19.72,22.90,14.44,49.81,1029.31,2056.98,2670.07,2702.41,2979.60,599.69,616.91,42.39,0000 0000 0000 0000 000000
2017-11-24 02:42:01,0.11,1.95,0.00,16.44,19.73,22.83,14.41,49.72,1029.31,2056.98,2668.01,2700.81,2977.97,599.35,616.50,42.44,0000 0000 0000 0000 000000
2017-11-24 02:47:03,0.04,1.95,0.00,16.45,19.74,22.86,14.50,49.67,1029.28,2056.99,2667.03,2700.05,2977.09,599.68,616.69,42.49,0000 0000 0000 0000 000000
2017-11-24 02:52:04,0.00,1.95,0.00,16.48,19.74,22.85,14.46,49.77,1029.15,2056.99,2666.99,2700.01,2977.01,599.36,616.32,42.54,0000 0000 0000 0000 000000
2017-11-24 02:57:05,0.01,1.95,0.00,16.47,19.74,22.84,14.38,49.82,1028.93,2056.98,2666.77,2699.99,2977.00,599.81,616.58,42.59,0000 0000 0000 0000 000000
2017-11-24 03:02:07,0.01,1.95,0.00,16.47,19.74,22.87,14.46,49.93,1028.86,2056.99,2666.13,2699.94,2976.95,599.95,616.97,42.64,0000 0000 0000 0000 000000
2017-11-24 03:07:08,0.02,1.95,0.00,16.48,19.74,22.89,14.43,49.80,1028.83,2056.98,2666.00,2699.67,2976.55,600.01,616.69,42.69,0000 0000 0000 0000 000000
2017-11-24 03:12:10,0.01,1.95,0.00,16.49,19.74,22.91,14.46,49.87,1028.83,2056.99,2665.99,2699.22,2976.15,599.91,616.61,42.74,0000 0000 0000 0000 000000
2017-11-24 03:17:11,0.01,1.95,0.00,16.52,19.74,22.89,14.44,49.82,1028.83,2056.99,2665.83,2699.02,2976.03,599.76,616.44,42.79,0000 0000 0000 0000 000000
2017-11-24 03:22:12,0.01,1.96,0.00,16.50,19.74,22.92,14.52,49.77,1028.83,2056.99,2665.06,2699.00,2975.99,600.00,616.87,42.84,0000 0000 0000 0000 000000
2017-11-24 03:27:13,0.00,1.96,0.00,16.50,19.74,22.88,14.51,49.83,1028.83,2056.99,2664.99,2698.98,2975.95,600.32,616.90,42.89,0000 0000 0000 0000 000000
2017-11-24 03:32:15,0.02,1.96,0.00,16.51,19.75,22.90,14.47,49.87,1028.83,2056.99,2664.89,2698.78,2975.53,600.05,616.77,42.94,0000 0000 0000 0000 000000
2017-11-24 03:37:16,0.03,1.96,0.00,16.53,19.75,22.86,14.45,49.77,1028.83,2056.99,2664.29,2698.20,2975.07,600.01,616.76,42.99,0000 0000 0000 0000 000000
2017-11-24 03:42:17,0.00,1.96,0.00,16.54,19.76,22.88,14.49,49.73,1028.83,2056.99,2664.03,2698.03,2975.02,599.84,616.40,43.05,0000 0000 0000 0000 000000
2017-11-24 03:47:18,0.00,1.96,0.00,16.55,19.77,22.89,14.40,49.83,1028.83,2056.99,2664.00,2698.01,2975.00,599.43,616.05,43.10,0000 0000 0000 0000 000000
2017-11-24 03:52:20,0.00,1.96,0.00,16.54,19.77,22.87,14.47,49.72,1028.82,2056.99,2663.98,2698.00,2974.99,600.00,616.73,43.15,0000 0000 0000 0000 000000
2017-11-24 03:57:21,0.00,1.96,0.00,16.55,19.77,22.89,14.49,49.73,1028.81,2056.99,2663.96,2698.00,2974.96,600.23,616.70,43.20,0000 0000 0000 0000 000000
2017-11-24 04:02:22,0.01,1.96,0.00,16.56,19.77,22.86,14.48,49.81,1028.82,2056.99,2663.64,2697.97,2974.76,600.05,616.66,43.25,0000 0000 0000 0000 000000
2017-11-24 04:07:24,0.01,1.96,0.00,16.57,19.78,22.88,14.50,49.82,1028.81,2056.98,2663.21,2697.93,2974.30,600.14,616.71,43.30,0000 0000 0000 0000 000000
2017-11-24 04:12:25,0.01,1.96,0.00,16.59,19.79,22.88,14.57,49.83,1028.79,2056.99,2663.04,2697.72,2974.07,600.63,617.17,43.35,0000 0000 0000 0000 000000
2017-11-24 04:17:26,0.02,1.96,0.00,16.59,19.79,22.93,14.43,49.78,1028.67,2056.98,2663.00,2697.12,2974.00,599.91,616.47,43.40,0000 0000 0000 0000 000000
2017-11-24 04:22:27,0.00,1.96,0.00,16.59,19.79,22.93,14.41,49.71,1028.48,2056.98,2662.98,2697.02,2973.99,599.78,616.39,43.45,0000 0000 0000 0000 000000
2017-11-24 04:27:28,0.00,1.96,0.00,16.60,19.79,22.91,14.40,49.72,1028.51,2056.97,2662.97,2697.00,2973.98,599.83,616.15,43.50,0000 0000 0000 0000 000000
2017-11-24 04:32:29,0.00,1.96,0.00,16.62,19.81,22.90,14.44,49.69,1028.52,2056.98,2662.95,2697.00,2973.90,599.87,616.16,43.55,0000 0000 0000 0000 000000
2017-11-24 04:37:30,0.02,1.96,0.00,16.63,19.82,22.92,14.45,49.69,1028.58,2056.98,2662.64,2697.00,2973.47,600.00,616.34,43.60,0000 0000 0000 0000 000000
2017-11-24 04:42:32,0.01,1.96,0.00,16.64,19.82,22.93,14.46,49.71,1028.47,2056.95,2662.10,2696.98,2973.05,599.80,615.94,43.65,0000 0000 0000 0000 000000
2017-11-24 04:47:33,0.01,1.96,0.00,16.64,19.83,22.95,14.48,49.81,1028.45,2056.95,2662.00,2696.77,2973.00,599.73,615.94,43.70,0000 0000 0000 0000 000000
2017-11-24 04:52:34,0.00,1.97,0.00,16.65,19.84,22.95,14.37,49.80,1028.39,2056.90,2662.00,2696.22,2972.99,599.72,615.91,43.75,0000 0000 0000 0000 000000
2017-11-24 04:57:35,-0.00,1.97,0.00,16.66,19.84,22.93,14.42,49.85,1028.34,2056.84,2661.99,2696.04,2972.97,600.07,616.23,43.80,0000 0000 0000 0000 000000
2017-11-24 05:02:36,0.01,1.97,0.00,16.67,19.85,22.96,14.46,49.82,1028.34,2056.91,2661.92,2696.01,2972.93,599.53,615.82,43.85,0000 0000 0000 0000 000000
2017-11-24 05:07:38,0.01,1.97,0.00,16.68,19.87,23.01,14.45,49.74,1028.34,2056.71,2661.38,2696.00,2972.32,600.09,616.04,43.90,0000 0000 0000 0000 000000
2017-11-24 05:12:39,-0.03,1.97,0.00,16.67,19.87,22.96,14.42,49.78,1028.31,2056.37,2661.03,2695.99,2972.03,599.90,616.00,43.95,0000 0000 0000 0000 000000
2017-11-24 05:17:41,0.01,1.97,0.00,16.67,19.87,22.97,14.44,49.81,1028.14,2056.32,2661.00,2695.98,2972.00,599.79,615.87,44.00,0000 0000 0000 0000 000000
2017-11-24 05:22:42,-0.00,1.97,0.00,16.69,19.88,22.99,14.34,49.63,1027.90,2056.33,2661.00,2695.91,2972.00,599.49,615.38,44.05,0000 0000 0000 0000 000000
2017-11-24 05:27:43,0.01,1.97,0.00,16.69,19.89,23.01,14.42,49.79,1027.87,2056.35,2660.97,2695.53,2971.99,599.94,615.69,44.10,0000 0000 0000 0000 000000
2017-11-24 05:32:44,0.01,1.97,0.00,16.69,19.89,23.02,14.48,49.68,1027.86,2056.23,2660.61,2695.08,2971.97,600.24,615.98,44.16,0000 0000 0000 0000 000000
2017-11-24 05:37:46,0.00,1.97,0.00,16.71,19.90,23.03,14.51,49.78,1027.85,2056.14,2660.10,2695.01,2971.65,600.14,615.84,44.21,0000 0000 0000 0000 000000
2017-11-24 05:42:47,0.01,1.97,0.00,16.73,19.92,23.02,14.39,49.75,1027.85,2056.10,2660.02,2695.00,2971.17,599.89,615.49,44.26,0000 0000 0000 0000 000000
2017-11-24 05:47:48,-0.00,1.97,0.00,16.74,19.92,23.05,14.31,49.61,1027.86,2056.09,2660.00,2694.99,2971.02,599.45,615.16,44.31,0000 0000 0000 0000 000000
2017-11-24 05:52:49,0.00,1.97,0.00,16.74,19.93,23.04,14.42,49.54,1027.85,2056.07,2659.98,2694.98,2971.00,599.90,615.51,44.36,0000 0000 0000 0000 000000
2017-11-24 05:57:51,-0.00,1.97,0.00,16.75,19.94,23.04,14.40,49.66,1027.85,2056.05,2659.95,2694.95,2970.99,599.84,615.32,44.41,0000 0000 0000 0000 000000
2017-11-24 06:02:52,0.02,1.97,0.00,16.79,19.94,23.07,14.47,49.74,1027.85,2056.05,2659.61,2694.64,2970.97,599.92,615.49,44.46,0000 0000 0000 0000 000000
2017-11-24 06:07:53,0.03,1.97,0.00,16.78,19.96,23.08,14.44,49.65,1027.85,2056.05,2659.08,2694.06,2970.78,599.90,615.44,44.51,0000 0000 0000 0000 000000
2017-11-24 06:12:55,0.00,1.97,0.00,16.78,19.97,23.08,14.43,49.76,1027.79,2056.03,2659.02,2694.02,2970.39,600.03,615.64,44.56,0000 0000 0000 0000 000000
2017-11-24 06:17:56,0.00,1.97,0.00,16.80,19.98,23.11,14.38,49.65,1027.80,2056.02,2659.00,2694.00,2970.04,600.00,615.43,44.61,0000 0000 0000 0000 000000
2017-11-24 06:22:58,0.00,1.97,0.00,16.79,19.99,23.11,14.35,49.68,1027.73,2056.00,2658.99,2693.98,2970.00,599.91,615.40,44.66,0000 0000 0000 0000 000000
2017-11-24 06:27:59,0.00,1.97,0.00,16.81,20.00,23.10,14.43,49.58,1027.80,2056.00,2658.89,2693.98,2969.99,599.98,615.44,44.71,0000 0000 0000 0000 000000
2017-11-24 06:33:00,0.02,1.97,0.00,16.83,20.02,23.11,14.44,49.77,1027.80,2056.00,2658.35,2693.86,2969.97,600.13,615.52,44.76,0000 0000 0000 0000 000000
2017-11-24 06:38:01,0.03,1.97,0.00,16.83,20.02,23.18,14.44,49.68,1027.84,2056.00,2658.02,2693.24,2969.59,599.87,615.16,44.81,0000 0000 0000 0000 000000
2017-11-24 06:43:03,0.01,1.97,0.00,16.84,20.04,23.13,14.42,49.67,1027.82,2056.00,2658.00,2693.05,2969.16,600.39,615.74,44.86,0000 0000 0000 0000 000000
2017-11-24 06:48:04,0.00,1.97,0.00,16.87,20.04,23.14,14.43,49.69,1027.81,2056.00,2657.99,2693.01,2969.02,600.36,615.62,44.91,0000 0000 0000 0000 000000
2017-11-24 06:53:05,0.00,1.97,0.00,16.89,20.06,23.19,14.46,49.76,1027.84,2056.00,2657.92,2692.99,2969.00,600.12,615.48,44.96,0000 0000 0000 0000 000000
2017-11-24 06:58:07,0.01,1.98,0.00,16.89,20.07,23.17,14.42,49.76,1027.82,2055.99,2657.43,2692.98,2968.98,599.92,615.22,45.01,0000 0000 0000 0000 000000
2017-11-24 07:03:08,0.01,1.98,0.00,16.91,20.08,23.18,14.47,49.64,1027.80,2055.99,2657.02,2692.92,2968.93,600.56,615.92,45.07,0000 0000 0000 0000 000000
2017-11-24 07:08:10,0.04,1.98,0.00,16.93,20.09,23.21,14.43,49.64,1027.74,2055.99,2657.00,2692.31,2968.41,599.68,614.84,45.12,0000 0000 0000 0000 000000
2017-11-24 07:13:11,0.00,1.98,0.00,16.93,20.10,23.20,14.46,49.67,1027.45,2055.98,2656.98,2692.03,2968.02,600.32,615.32,45.17,0000 0000 0000 0000 000000
2017-11-24 07:18:12,-0.00,1.98,0.00,16.93,20.12,23.21,14.39,49.71,1027.38,2055.98,2656.90,2692.00,2968.00,600.09,615.13,45.22,0000 0000 0000 0000 000000
2017-11-24 07:23:14,0.01,1.98,0.00,16.97,20.12,23.21,14.32,49.69,1027.38,2055.96,2656.25,2692.00,2968.00,599.64,614.45,45.27,0000 0000 0000 0000 000000
2017-11-24 07:28:15,0.00,1.98,0.00,16.97,20.13,23.21,14.40,49.67,1027.49,2055.96,2656.02,2691.98,2967.98,599.85,614.83,45.32,0000 0000 0000 0000 000000
2017-11-24 07:33:16,0.01,1.98,0.00,16.98,20.14,23.21,14.45,49.67,1027.53,2055.96,2656.00,2691.88,2967.68,600.00,614.95,45.37,0000 0000 0000 0000 000000
2017-11-24 07:38:18,0.01,1.98,0.00,16.99,20.16,23.24,14.40,49.63,1027.39,2055.77,2655.99,2691.35,2967.09,599.81,614.65,45.42,0000 0000 0000 0000 000000
2017-11-24 07:43:19,-0.02,1.98,0.00,17.01,20.17,23.27,14.43,49.58,1027.38,2055.48,2655.90,2691.04,2967.01,600.26,615.14,45.47,0000 0000 0000 0000 000000
2017-11-24 07:48:20,0.02,1.98,0.00,17.02,20.18,23.32,14.31,49.56,1027.40,2055.43,2655.27,2691.00,2966.99,599.92,614.68,45.52,0000 0000 0000 0000 000000
2017-11-24 07:53:22,-0.02,1.98,0.00,17.02,20.19,23.29,14.33,49.63,1027.45,2055.23,2655.01,2691.00,2966.93,599.78,614.68,45.57,0000 0000 0000 0000 000000
2017-11-24 07:58:23,0.00,1.98,0.00,17.03,20.20,23.28,14.40,49.55,1027.50,2055.07,2654.98,2690.95,2966.31,600.00,614.80,45.62,0000 0000 0000 0000 000000
2017-11-24 08:03:24,0.02,1.98,0.00,17.06,20.22,23.31,14.57,49.63,1027.70,2055.04,2654.92,2690.55,2966.01,600.42,615.20,45.67,0000 0000 0000 0000 000000
2017-11-24 08:08:25,0.02,1.98,0.00,17.06,20.23,23.34,14.33,49.53,1027.76,2055.02,2654.54,2690.10,2966.00,599.81,614.73,45.72,0000 0000 0000 0000 000000
2017-11-24 08:13:27,0.00,1.98,0.00,17.07,20.24,23.38,14.43,49.63,1027.54,2055.02,2654.05,2690.00,2965.99,599.96,614.64,45.77,0000 0000 0000 0000 000000
2017-11-24 08:18:28,0.01,1.98,0.00,17.09,20.25,23.35,14.39,49.64,1027.52,2055.01,2653.96,2689.97,2965.65,600.05,614.74,45.82,0000 0000 0000 0000 000000
2017-11-24 08:23:29,0.21,1.99,0.00,17.12,20.27,23.35,14.42,49.68,1027.40,2055.00,2651.47,2688.07,2963.58,600.02,614.60,45.87,0000 0000 0000 0000 000000
2017-11-24 08:28:30,0.04,2.00,0.00,17.14,20.28,23.38,14.39,49.78,1027.38,2055.00,2649.90,2687.00,2962.06,599.91,614.45,45.92,0000 0000 0000 0000 000000
2017-11-24 08:33:31,0.01,2.00,0.00,17.13,20.29,23.43,14.41,49.86,1027.37,2055.00,2649.25,2686.94,2962.00,600.10,614.66,45.98,0000 0000 0000 0000 000000
2017-11-24 08:38:33,0.02,2.00,0.00,17.13,20.30,23.41,14.45,49.88,1027.36,2055.00,2649.00,2686.48,2961.92,600.05,614.56,46.03,0000 0000 0000 0000 000000
2017-11-24 08:43:34,0.02,2.00,0.00,17.15,20.32,23.42,14.47,49.92,1027.36,2055.00,2648.99,2686.04,2961.26,600.26,614.71,46.08,0000 0000 0000 0000 000000
2017-11-24 08:48:35,0.00,2.00,0.00,17.17,20.32,23.42,14.45,49.84,1027.36,2055.00,2648.90,2686.00,2961.01,600.15,614.48,46.13,0000 0000 0000 0000 000000
2017-11-24 08:53:36,0.01,2.00,0.00,17.16,20.32,23.42,14.34,49.87,1027.35,2055.00,2648.30,2686.00,2961.00,599.81,614.39,46.18,0000 0000 0000 0000 000000
2017-11-24 08:58:37,0.00,2.00,0.00,17.16,20.34,23.42,14.40,49.95,1027.27,2055.00,2648.01,2685.96,2960.99,599.80,614.13,46.23,0000 0000 0000 0000 000000
2017-11-24 09:03:38,0.04,2.00,0.00,17.14,20.34,23.45,14.41,49.83,1027.32,2055.00,2647.97,2685.35,2960.37,600.18,614.67,46.28,0000 0000 0000 0000 000000
2017-11-24 09:08:40,0.01,2.00,0.00,17.14,20.34,23.43,14.46,49.79,1027.28,2054.99,2647.52,2685.04,2960.02,600.21,614.55,46.33,0000 0000 0000 0000 000000
2017-11-24 09:13:41,0.00,2.00,0.00,17.15,20.34,23.43,14.47,49.85,1027.25,2054.99,2647.03,2685.00,2960.00,600.37,614.71,46.38,0000 0000 0000 0000 000000
2017-11-24 09:18:42,0.00,2.00,0.00,17.12,20.34,23.44,14.46,49.90,1027.21,2054.98,2647.00,2684.99,2959.98,599.95,614.54,46.43,0000 0000 0000 0000 000000
2017-11-24 09:23:44,0.01,2.00,0.00,17.12,20.35,23.47,14.48,49.88,1027.23,2054.99,2646.93,2684.94,2959.78,600.03,614.50,46.48,0000 0000 0000 0000 000000
2017-11-24 09:28:45,0.03,2.01,0.00,17.14,20.35,23.51,14.42,49.95,1027.21,2054.98,2646.41,2684.59,2959.14,600.10,614.51,46.53,0000 0000 0000 0000 000000
2017-11-24 09:33:46,0.02,2.01,0.00,17.14,20.35,23.52,14.47,49.98,1026.96,2054.98,2646.02,2684.07,2959.01,600.31,614.50,46.58,0000 0000 0000 0000 000000
2017-11-24 09:38:47,0.00,2.01,0.00,17.08,20.36,23.51,14.46,49.98,1026.87,2054.98,2645.99,2684.00,2959.00,600.13,614.65,46.63,0000 0000 0000 0000 000000
2017-11-24 09:43:48,0.01,2.01,0.00,17.07,20.35,23.51,14.31,49.84,1026.86,2054.98,2645.61,2684.00,2958.95,599.81,614.06,46.68,0000 0000 0000 0000 000000
2017-11-24 09:48:50,0.01,2.01,0.00,17.04,20.35,23.55,14.45,49.93,1026.87,2054.99,2645.06,2683.97,2958.60,600.12,614.60,46.73,0000 0000 0000 0000 000000
2017-11-24 09:53:51,0.01,2.01,0.00,17.04,20.35,23.60,14.52,49.95,1026.87,2054.99,2645.02,2683.87,2958.09,600.10,614.64,46.78,0000 0000 0000 0000 000000
2017-11-24 09:58:52,0.02,2.01,0.00,17.02,20.34,23.64,14.32,49.94,1026.87,2054.99,2644.98,2683.24,2958.00,599.71,614.09,46.83,0000 0000 0000 0000 000000
2017-11-24 10:03:53,0.01,2.01,0.00,17.02,20.34,23.60,14.40,49.99,1026.86,2054.98,2644.74,2683.05,2957.99,599.83,614.28,46.88,0000 0000 0000 0000 000000
2017-11-24 10:08:55,0.01,2.01,0.00,17.00,20.34,23.64,14.47,49.93,1026.86,2054.99,2644.07,2683.00,2957.85,600.02,614.58,46.94,0000 0000 0000 0000 000000
2017-11-24 10:13:56,0.01,2.01,0.00,16.96,20.34,23.65,14.57,49.99,1026.82,2054.99,2644.00,2682.99,2957.18,600.23,614.66,46.99,0000 0000 0000 0000 000000
2017-11-24 10:18:57,0.00,2.01,0.00,16.98,20.32,23.67,14.48,49.86,1026.78,2054.99,2643.99,2682.94,2957.02,600.34,614.90,47.04,0000 0000 0000 0000 000000
2017-11-24 10:23:58,0.01,2.01,0.00,16.99,20.32,23.71,14.43,49.79,1026.63,2054.99,2643.98,2682.78,2957.00,600.02,614.38,47.09,0000 0000 0000 0000 000000
2017-11-24 10:28:59,0.02,2.01,0.00,16.93,20.32,23.66,14.42,49.93,1026.41,2054.99,2643.80,2682.32,2956.99,600.03,614.38,47.14,0000 0000 0000 0000 000000
2017-11-24 10:34:01,0.01,2.02,0.00,16.94,20.31,23.74,14.37,49.91,1026.40,2054.99,2643.24,2682.11,2956.97,599.89,614.18,47.19,0000 0000 0000 0000 000000
2017-11-24 10:39:02,0.01,2.02,0.00,16.94,20.29,23.72,14.44,49.90,1026.40,2054.99,2643.03,2682.02,2956.73,600.18,614.60,47.24,0000 0000 0000 0000 000000
2017-11-24 10:44:04,0.00,2.02,0.00,16.92,20.29,23.62,14.49,49.98,1026.38,2054.99,2643.00,2682.00,2956.29,600.38,614.55,47.29,0000 0000 0000 0000 000000
2017-11-24 10:49:04,0.00,2.02,0.00,16.92,20.28,23.65,14.49,49.84,1026.39,2055.00,2642.98,2681.99,2956.06,600.32,614.83,47.34,0000 0000 0000 0000 000000
2017-11-24 10:54:06,0.01,2.02,0.00,16.89,20.27,23.64,14.45,49.93,1026.38,2055.00,2642.72,2681.99,2956.01,600.12,614.42,47.39,0000 0000 0000 0000 000000
2017-11-24 10:59:07,0.01,2.02,0.00,16.91,20.27,23.66,14.44,49.82,1026.38,2055.00,2642.11,2681.97,2956.00,600.26,614.58,47.44,0000 0000 0000 0000 000000
2017-11-24 11:04:08,0.00,2.02,0.00,16.84,20.25,23.62,14.38,49.79,1026.38,2055.01,2642.03,2681.95,2955.99,600.18,614.88,47.49,0000 0000 0000 0000 000000
2017-11-24 11:09:10,0.00,2.02,0.00,16.80,20.24,23.66,14.48,49.78,1026.39,2055.01,2642.00,2681.84,2955.96,600.00,614.61,47.54,0000 0000 0000 0000 000000
2017-11-24 11:14:11,0.01,2.02,0.00,16.86,20.24,23.63,14.32,49.83,1026.39,2055.01,2641.99,2681.49,2955.93,599.86,614.28,47.59,0000 0000 0000 0000 000000
2017-11-24 11:19:12,0.02,2.02,0.00,16.88,20.22,23.70,14.41,49.88,1026.38,2055.03,2641.82,2681.21,2955.62,599.73,614.22,47.64,0000 0000 0000 0000 000000
2017-11-24 11:24:14,0.02,2.02,0.00,16.86,20.22,23.62,14.42,49.87,1026.38,2055.04,2641.19,2681.02,2955.06,600.00,614.53,47.69,0000 0000 0000 0000 000000
2017-11-24 11:29:15,0.00,2.02,0.00,16.85,20.22,23.59,14.43,49.83,1026.29,2055.04,2641.02,2681.00,2955.01,600.23,614.73,47.74,0000 0000 0000 0000 000000
2017-11-24 11:34:16,0.00,2.02,0.00,16.84,20.20,23.61,14.39,49.86,1025.94,2055.07,2641.00,2680.99,2955.00,599.89,614.21,47.80,0000 0000 0000 0000 000000
2017-11-24 11:39:17,0.02,2.02,0.00,16.82,20.19,23.57,14.44,50.00,1025.90,2055.16,2640.78,2680.96,2954.98,600.00,614.31,47.85,0000 0000 0000 0000 000000
2017-11-24 11:44:18,0.04,2.03,0.00,16.81,20.19,23.60,14.48,50.01,1025.87,2055.42,2640.17,2680.82,2954.89,600.03,614.34,47.90,0000 0000 0000 0000 000000
2017-11-24 11:49:20,0.06,2.03,0.00,16.85,20.18,23.60,14.50,49.88,1025.64,2055.58,2640.00,2680.24,2954.34,600.15,614.22,47.95,0000 0000 0000 0000 000000
2017-11-24 11:54:21,0.03,2.03,0.00,16.80,20.17,23.54,14.44,49.83,1025.44,2055.82,2639.93,2680.02,2954.02,600.08,614.10,48.00,0000 0000 0000 0000 000000
2017-11-24 11:59:22,0.04,2.03,0.00,16.78,20.17,23.61,14.42,49.88,1025.41,2055.94,2639.19,2679.92,2953.76,600.01,614.07,48.05,0000 0000 0000 0000 000000
2017-11-24 12:04:23,0.02,2.03,0.00,16.76,20.15,23.59,14.44,49.90,1025.41,2055.96,2639.00,2679.53,2953.17,600.07,614.25,48.10,0000 0000 0000 0000 000000
2017-11-24 12:09:24,0.01,2.03,0.00,16.75,20.14,23.60,14.35,49.85,1025.23,2055.96,2638.97,2679.06,2953.01,599.62,613.66,48.15,0000 0000 0000 0000 000000
2017-11-24 12:14:26,0.01,2.03,0.00,16.72,20.13,23.60,14.39,49.88,1025.00,2055.98,2638.74,2679.01,2953.00,599.76,613.79,48.20,0000 0000 0000 0000 000000
2017-11-24 12:19:27,0.01,2.04,0.00,16.73,20.12,23.57,14.48,50.17,1024.94,2055.98,2638.15,2679.00,2953.00,600.17,614.12,48.25,0000 0000 0000 0000 000000
2017-11-24 12:24:28,0.00,2.04,0.00,16.73,20.12,23.54,14.42,49.99,1024.93,2055.98,2638.00,2678.99,2952.95,599.70,613.68,48.30,0000 0000 0000 0000 000000
2017-11-24 12:29:29,0.00,2.04,0.00,16.68,20.09,23.50,14.48,50.16,1024.92,2055.99,2638.00,2678.98,2952.85,600.27,614.23,48.35,0000 0000 0000 0000 000000
2017-11-24 12:34:30,0.01,2.04,0.00,16.68,20.09,23.51,14.43,50.13,1024.92,2055.99,2637.97,2678.98,2952.35,600.01,613.95,48.40,0000 0000 0000 0000 000000
2017-11-24 12:39:31,0.02,2.04,0.00,16.68,20.07,23.51,14.44,50.16,1024.91,2055.99,2637.53,2678.85,2952.11,599.95,614.00,48.45,0000 0000 0000 0000 000000
2017-11-24 12:44:32,0.01,2.04,0.00,16.67,20.07,23.52,14.54,50.09,1024.73,2056.01,2637.03,2678.51,2952.02,600.32,614.20,48.50,0000 0000 0000 0000 000000
2017-11-24 12:49:34,0.01,2.04,0.00,16.63,20.05,23.44,14.43,50.35,1024.48,2056.02,2637.00,2678.15,2952.00,599.96,613.70,48.55,0000 0000 0000 0000 000000
2017-11-24 12:54:35,0.00,2.04,0.00,16.63,20.04,23.46,14.39,50.40,1024.45,2056.04,2636.96,2678.02,2951.99,599.99,613.74,48.60,0000 0000 0000 0000 000000